When you browse on this site, cookies collect data to enhance your experience and personalize the content and advertising you see.
Visit our Privacy Policy to learn more. By continuing to use the site, you agree to this use of cookies and data.
  • în România
  • Lista ţărilor
  • Pe 7 zile
  • Temperatura apei
  • Meteo pe hartă
  • Widget-uri
  • user-avatar
    Intrare

    Meteo pe oră la Sokolihino

    Astăzi, 16 Septembrie, Luni

    Timp Temperatura Precipitaţii Vânt Presiune Umiditate
    00:00 +9°C° 0.2 mm 5 m/s 730 mmHg 91%
    01:00 +8°C° 0.2 mm 4 m/s 729 mmHg 92%
    02:00 +8°C° 0 mm 4 m/s 729 mmHg 95%
    03:00 +8°C° 0.1 mm 4 m/s 729 mmHg 94%
    04:00 +7°C° 0.1 mm 4 m/s 728 mmHg 94%
    05:00 +7°C° 0.1 mm 4 m/s 728 mmHg 93%
    06:00 +7°C° 0.1 mm 4 m/s 728 mmHg 92%
    07:00 +8°C° 0.1 mm 5 m/s 728 mmHg 90%
    08:00 +8°C° 0.1 mm 5 m/s 728 mmHg 89%
    09:00 +8°C° 0.2 mm 5 m/s 728 mmHg 88%
    10:00 +9°C° 0.2 mm 5 m/s 728 mmHg 88%
    11:00 +9°C° 0.2 mm 5 m/s 728 mmHg 87%
    12:00 +10°C° 0.3 mm 6 m/s 728 mmHg 83%
    13:00 +11°C° 0.3 mm 6 m/s 728 mmHg 79%
    14:00 +13°C° 0.3 mm 6 m/s 728 mmHg 75%
    15:00 +11°C° 0.4 mm 6 m/s 728 mmHg 78%
    16:00 +10°C° 0.4 mm 6 m/s 728 mmHg 82%
    17:00 +10°C° 0.4 mm 5 m/s 728 mmHg 86%
    18:00 +9°C° 0.1 mm 5 m/s 728 mmHg 88%
    19:00 +8°C° 0.1 mm 5 m/s 728 mmHg 90%
    20:00 +8°C° 0.1 mm 5 m/s 728 mmHg 92%
    21:00 +8°C° 0.1 mm 5 m/s 728 mmHg 91%
    22:00 +8°C° 0.1 mm 5 m/s 728 mmHg 91%
    23:00 +8°C° 0.1 mm 5 m/s 728 mmHg 91%

    Mâine, 17 Septembrie, Marţi

    Timp Temperatura Precipitaţii Vânt Presiune Umiditate
    00:00 +7°C° 0 mm 5 m/s 728 mmHg 91%
    01:00 +7°C° 0 mm 5 m/s 728 mmHg 90%
    02:00 +7°C° 0 mm 5 m/s 728 mmHg 90%
    03:00 +6°C° 0 mm 5 m/s 728 mmHg 90%
    04:00 +6°C° 0 mm 5 m/s 728 mmHg 91%
    05:00 +5°C° 0 mm 5 m/s 728 mmHg 91%
    06:00 +5°C° 0.1 mm 5 m/s 728 mmHg 90%
    07:00 +5°C° 0.1 mm 5 m/s 728 mmHg 89%
    08:00 +6°C° 0.1 mm 4 m/s 728 mmHg 88%
    09:00 +6°C° 0.1 mm 4 m/s 728 mmHg 85%
    10:00 +7°C° 0.1 mm 4 m/s 729 mmHg 83%
    11:00 +8°C° 0.1 mm 4 m/s 729 mmHg 81%
    12:00 +8°C° 0.2 mm 4 m/s 729 mmHg 82%
    13:00 +8°C° 0.2 mm 4 m/s 729 mmHg 82%
    14:00 +10°C° 0.2 mm 4 m/s 729 mmHg 83%
    15:00 +9°C° 0.3 mm 3 m/s 728 mmHg 85%
    16:00 +9°C° 0.3 mm 3 m/s 728 mmHg 86%
    17:00 +9°C° 0.3 mm 2 m/s 728 mmHg 88%
    18:00 +8°C° 0.1 mm 2 m/s 728 mmHg 91%
    19:00 +7°C° 0.1 mm 2 m/s 728 mmHg 94%
    20:00 +6°C° 0.1 mm 2 m/s 728 mmHg 97%
    21:00 +7°C° 0 mm 1 m/s 728 mmHg 97%
    22:00 +6°C° 0 mm 1 m/s 728 mmHg 97%
    23:00 +6°C° 0 mm 1 m/s 728 mmHg 98%

    Poimâine, 18 Septembrie, Miercuri

    Timp Temperatura Precipitaţii Vânt Presiune Umiditate
    00:00 +5°C° 0 mm 1 m/s 728 mmHg 98%
    01:00 +5°C° 0 mm 1 m/s 728 mmHg 98%
    02:00 +4°C° 0 mm 1 m/s 728 mmHg 98%
    03:00 +3°C° 0 mm 0 m/s 727 mmHg 98%
    04:00 +3°C° 0 mm 0 m/s 727 mmHg 98%
    05:00 +3°C° 0 mm 0 m/s 727 mmHg 98%
    06:00 +4°C° 0 mm 0 m/s 728 mmHg 96%
    07:00 +6°C° 0 mm 1 m/s 728 mmHg 94%
    08:00 +7°C° 0 mm 1 m/s 728 mmHg 92%
    09:00 +9°C° 0 mm 1 m/s 728 mmHg 86%
    10:00 +9°C° 0 mm 2 m/s 729 mmHg 80%
    11:00 +10°C° 0 mm 2 m/s 729 mmHg 73%
    12:00 +12°C° 0 mm 2 m/s 729 mmHg 69%
    13:00 +11°C° 0 mm 3 m/s 730 mmHg 64%
    14:00 +11°C° 0 mm 3 m/s 730 mmHg 60%
    15:00 +11°C° 0 mm 3 m/s 730 mmHg 64%
    16:00 +10°C° 0 mm 2 m/s 730 mmHg 69%
    17:00 +9°C° 0 mm 2 m/s 731 mmHg 73%
    18:00 +8°C° 0 mm 2 m/s 731 mmHg 80%
    19:00 +7°C° 0 mm 2 m/s 732 mmHg 87%
    20:00 +5°C° 0 mm 2 m/s 732 mmHg 93%
    21:00 +5°C° 0 mm 2 m/s 733 mmHg 95%
    22:00 +4°C° 0 mm 2 m/s 733 mmHg 96%
    23:00 +4°C° 0 mm 2 m/s 734 mmHg 97%

    19 Septembrie, Joi

    Timp Temperatura Precipitaţii Vânt Presiune Umiditate
    00:00 +3°C° 0 mm 2 m/s 734 mmHg 97%
    01:00 +3°C° 0 mm 2 m/s 735 mmHg 97%
    02:00 +3°C° 0 mm 2 m/s 735 mmHg 98%
    03:00 +2°C° 0 mm 2 m/s 735 mmHg 98%
    04:00 +2°C° 0 mm 2 m/s 736 mmHg 98%
    05:00 +2°C° 0 mm 2 m/s 736 mmHg 98%
    06:00 +3°C° 0 mm 2 m/s 737 mmHg 94%
    07:00 +4°C° 0 mm 2 m/s 737 mmHg 90%
    08:00 +5°C° 0 mm 2 m/s 737 mmHg 86%
    09:00 +6°C° 0.1 mm 2 m/s 738 mmHg 79%
    10:00 +7°C° 0.1 mm 2 m/s 738 mmHg 71%
    11:00 +8°C° 0.1 mm 2 m/s 739 mmHg 64%
    12:00 +9°C° 0.1 mm 3 m/s 739 mmHg 62%
    13:00 +9°C° 0.1 mm 3 m/s 739 mmHg 60%
    14:00 +9°C° 0.1 mm 3 m/s 739 mmHg 59%
    15:00 +9°C° 0.1 mm 2 m/s 739 mmHg 63%
    16:00 +8°C° 0.1 mm 2 m/s 739 mmHg 67%
    17:00 +7°C° 0.1 mm 2 m/s 740 mmHg 71%
    18:00 +7°C° 0 mm 1 m/s 740 mmHg 77%
    19:00 +5°C° 0 mm 1 m/s 740 mmHg 83%
    20:00 +4°C° 0 mm 1 m/s 741 mmHg 88%
    21:00 +3°C° 0 mm 1 m/s 741 mmHg 90%
    22:00 +3°C° 0 mm 1 m/s 741 mmHg 92%
    23:00 +2°C° 0 mm 1 m/s 741 mmHg 93%

    20 Septembrie, Vineri

    Timp Temperatura Precipitaţii Vânt Presiune Umiditate
    00:00 +2°C° 0 mm 1 m/s 742 mmHg 94%
    01:00 +2°C° 0 mm 1 m/s 742 mmHg 95%
    02:00 +2°C° 0 mm 1 m/s 742 mmHg 96%
    03:00 +1°C° 0 mm 1 m/s 742 mmHg 96%
    04:00 -1°C° 0 mm 2 m/s 742 mmHg 96%
    05:00 -1°C° 0 mm 2 m/s 742 mmHg 97%
    06:00 +1°C° 0 mm 2 m/s 742 mmHg 91%
    07:00 +2°C° 0 mm 2 m/s 743 mmHg 85%
    08:00 +3°C° 0 mm 2 m/s 743 mmHg 80%
    09:00 +4°C° 0 mm 2 m/s 743 mmHg 71%
    10:00 +6°C° 0 mm 2 m/s 743 mmHg 63%
    11:00 +8°C° 0 mm 3 m/s 744 mmHg 54%
    12:00 +7°C° 0.3 mm 3 m/s 743 mmHg 60%
    13:00 +7°C° 0.3 mm 3 m/s 743 mmHg 65%
    14:00 +7°C° 0.3 mm 3 m/s 743 mmHg 70%
    15:00 +5°C° 0.1 mm 3 m/s 743 mmHg 71%
    16:00 +6°C° 0.1 mm 2 m/s 743 mmHg 72%
    17:00 +5°C° 0.1 mm 2 m/s 743 mmHg 73%
    18:00 +5°C° 0 mm 1 m/s 743 mmHg 76%
    19:00 +4°C° 0 mm 1 m/s 744 mmHg 79%
    20:00 +2°C° 0 mm 1 m/s 744 mmHg 83%
    21:00 +2°C° 0 mm 1 m/s 744 mmHg 84%
    22:00 +2°C° 0 mm 1 m/s 744 mmHg 85%
    23:00 +2°C° 0 mm 1 m/s 744 mmHg 86%

    21 Septembrie, Sâmbătă

    Timp Temperatura Precipitaţii Vânt Presiune Umiditate
    00:00 +1°C° 0 mm 1 m/s 744 mmHg 88%
    01:00 +1°C° 0 mm 1 m/s 744 mmHg 90%
    02:00 0°C° 0 mm 1 m/s 744 mmHg 92%
    03:00 0°C° 0 mm 1 m/s 744 mmHg 93%
    04:00 0°C° 0 mm 1 m/s 745 mmHg 93%
    05:00 0°C° 0 mm 1 m/s 745 mmHg 94%
    06:00 +1°C° 0 mm 1 m/s 745 mmHg 87%
    07:00 +3°C° 0 mm 1 m/s 745 mmHg 79%
    08:00 +5°C° 0 mm 1 m/s 746 mmHg 72%
    09:00 +7°C° 0 mm 1 m/s 746 mmHg 65%
    10:00 +8°C° 0 mm 1 m/s 746 mmHg 57%
    11:00 +10°C° 0 mm 1 m/s 746 mmHg 49%
    12:00 +9°C° 0 mm 2 m/s 746 mmHg 48%
    13:00 +9°C° 0 mm 2 m/s 746 mmHg 48%
    14:00 +10°C° 0 mm 2 m/s 745 mmHg 47%
    15:00 +9°C° 0 mm 2 m/s 745 mmHg 52%
    16:00 +9°C° 0 mm 1 m/s 745 mmHg 58%
    17:00 +8°C° 0 mm 1 m/s 745 mmHg 64%
    18:00 +7°C° 0 mm 1 m/s 745 mmHg 66%
    19:00 +6°C° 0 mm 1 m/s 746 mmHg 69%
    20:00 +4°C° 0 mm 2 m/s 746 mmHg 71%
    21:00 +4°C° 0 mm 2 m/s 746 mmHg 74%
    22:00 +4°C° 0 mm 2 m/s 745 mmHg 76%
    23:00 +4°C° 0 mm 2 m/s 745 mmHg 79%
    Arată mai mult